Temp
-9 -9 -9 -9 -9 -9 -9 -9 -9 -9 -9 -9 -9 -9 -9 -9 -9 -9 -9 -9 -9 -9 -9 -9 -9 -9 -9 -9 -9 -9 -9 -10 -10 -10 -10 -10 -10 -11 -11 -11 -11 -11 -10 -10 -10
-9 -9 -9 -9 -9 -9 -9 -9 -9 -9 -9 -9 -9 -9 -9 -9 -9 -9 -9 -9 -9 -9 -9 -9 -9 -9 -9 -9 -9 -9 -9 -10 -10 -10 -10 -10 -10 -11 -11 -11 -12 -11 -11 -10 -11
-10 -10 -10 -10 -10 -10 -10 -9 -9 -9 -9 -9 -9 -9 -9 -9 -9 -9 -9 -9 -9 -9 -9 -9 -9 -9 -9 -9 -10 -9 -10 -10 -10 -10 -10 -11 -11 -10 -11 -11 -12 -11 -11 -11 -11
-10 -10 -10 -10 -10 -10 -10 -9 -9 -9 -9 -9 -9 -9 -9 -9 -9 -9 -9 -9 -9 -9 -9 -10 -10 -10 -10 -10 -10 -10 -10 -10 -10 -10 -11 -11 -11 -11 -11 -11 -12 -11 -11 -11 -11
-10 -10 -10 -10 -10 -9 -9 -9 -9 -9 -9 -9 -9 -9 -9 -9 -10 -9 -9 -9 -10 -10 -10 -10 -10 -10 -10 -10 -10 -10 -10 -10 -11 -11 -11 -11 -11 -10 -10 -12 -11 -11 -11 -11 -11
-10 -10 -10 -10 -9 -9 -9 -9 -9 -9 -9 -9 -9 -9 -9 -10 -10 -10 -10 -10 -10 -10 -10 -10 -10 -10 -10 -10 -10 -10 -10 -10 -10 -11 -11 -11 -11 -10 -11 -12 -11 -11 -11 -11 -10
-10 -10 -10 -10 -10 -10 -10 -10 -10 -10 -10 -10 -10 -10 -10 -10 -10 -10 -10 -10 -10 -10 -10 -10 -10 -10 -10 -10 -10 -10 -10 -10 -10 -11 -11 -11 -10 -10 -11 -11 -11 -11 -11 -10 -11
-10 -10 -10 -10 -10 -10 -10 -10 -10 -10 -10 -10 -10 -10 -10 -10 -10 -10 -10 -10 -10 -11 -11 -11 -11 -11 -11 -11 -10 -10 -10 -10 -11 -10 -9 -10 -10 -10 -11 -10 -10 -10 -11 -11 -12
-11 -11 -11 -11 -10 -10 -10 -10 -10 -10 -10 -10 -10 -10 -10 -10 -11 -11 -11 -11 -11 -11 -11 -11 -11 -11 -11 -11 -10 -10 -10 -10 -9 -10 -9 -9 -9 -10 -10 -10 -10 -11 -11 -11 -11
-11 -11 -11 -11 -11 -11 -11 -10 -10 -10 -10 -10 -10 -10 -10 -11 -11 -11 -11 -11 -11 -11 -11 -11 -11 -11 -11 -11 -11 -10 -10 -10 -10 -11 -10 -9 -9 -9 -10 -9 -10 -10 -11 -11 -11
-11 -11 -11 -11 -11 -11 -11 -11 -11 -10 -11 -11 -11 -10 -11 -11 -11 -11 -11 -11 -11 -11 -11 -11 -11 -11 -11 -11 -11 -11 -10 -10 -10 -11 -10 -9 -9 -8 -9 -10 -10 -10 -10 -10 -10
-11 -11 -11 -11 -11 -11 -11 -11 -10 -10 -10 -11 -11 -11 -10 -11 -11 -11 -11 -11 -11 -11 -11 -11 -11 -11 -11 -11 -11 -11 -11 -10 -10 -11 -10 -9 -8 -9 -10 -10 -10 -10 -10 -10 -11
-12 -12 -12 -11 -11 -11 -11 -11 -11 -10 -10 -10 -11 -11 -11 -11 -11 -12 -11 -11 -11 -11 -11 -11 -11 -11 -11 -11 -12 -12 -11 -11 -10 -10 -10 -9 -9 -9 -10 -10 -11 -11 -12 -11 -11
-12 -12 -12 -12 -12 -12 -11 -11 -11 -11 -11 -10 -10 -10 -11 -11 -11 -11 -11 -11 -11 -11 -12 -11 -11 -11 -12 -12 -13 -11 -12 -11 -11 -11 -10 -10 -8 -10 -11 -11 -11 -11 -11 -11 -11
-13 -13 -13 -13 -13 -12 -12 -12 -12 -12 -11 -11 -11 -12 -12 -12 -12 -12 -12 -13 -12 -12 -12 -12 -12 -12 -12 -13 -13 -12 -13 -13 -12 -11 -11 -10 -10 -10 -11 -12 -12 -12 -12 -12 -11
-13 -14 -14 -14 -14 -13 -13 -13 -13 -13 -12 -12 -13 -14 -14 -13 -13 -13 -13 -13 -13 -13 -13 -13 -13 -13 -13 -14 -14 -13 -13 -13 -13 -13 -11 -12 -11 -10 -12 -13 -14 -14 -14 -13 -14
-14 -14 -14 -14 -14 -14 -13 -13 -13 -13 -13 -13 -14 -14 -14 -14 -15 -15 -15 -15 -15 -14 -14 -14 -14 -14 -14 -14 -14 -14 -14 -14 -14 -14 -13 -13 -12 -11 -13 -14 -14 -15 -15 -15 -15
-14 -15 -14 -14 -14 -14 -14 -14 -13 -13 -13 -14 -15 -15 -15 -15 -15 -15 -15 -15 -16 -16 -15 -14 -14 -16 -15 -16 -16 -16 -15 -16 -16 -15 -14 -14 -12 -13 -13 -14 -14 -15 -14 -13 -14
-15 -15 -15 -15 -15 -15 -15 -14 -14 -14 -15 -15 -15 -15 -15 -15 -16 -16 -16 -15 -15 -16 -16 -16 -15 -16 -16 -16 -16 -16 -16 -17 -16 -16 -16 -14 -13 -14 -14 -14 -15 -16 -15 -15 -15
-15 -15 -15 -15 -15 -15 -15 -14 -14 -16 -16 -16 -16 -16 -15 -17 -17 -16 -16 -15 -15 -16 -17 -18 -17 -15 -17 -17 -16 -17 -17 -17 -17 -17 -17 -16 -14 -13 -14 -16 -17 -18 -18 -18 -17
-15 -15 -15 -17 -16 -15 -15 -16 -16 -17 -18 -17 -17 -17 -17 -18 -18 -18 -17 -17 -17 -17 -18 -19 -19 -17 -18 -17 -17 -18 -18 -18 -18 -18 -18 -18 -16 -15 -16 -16 -15 -15 -16 -16 -17
-16 -16 -16 -17 -17 -17 -17 -18 -18 -18 -18 -18 -18 -18 -18 -19 -18 -19 -18 -19 -18 -18 -18 -19 -20 -19 -18 -18 -19 -20 -20 -20 -20 -19 -19 -19 -18 -18 -17 -17 -16 -16 -16 -17 -18
-18 -18 -18 -18 -17 -18 -19 -19 -18 -18 -19 -19 -19 -19 -19 -19 -19 -19 -19 -19 -19 -20 -20 -20 -20 -21 -20 -19 -19 -20 -20 -21 -20 -20 -21 -20 -20 -20 -19 -19 -19 -19 -19 -19 -19
-19 -19 -19 -19 -19 -19 -19 -19 -19 -19 -19 -19 -20 -20 -20 -20 -20 -19 -20 -20 -20 -20 -21 -21 -21 -21 -21 -21 -21 -22 -22 -21 -21 -20 -20 -20 -20 -20 -21 -21 -21 -20 -20 -20 -20
-19 -20 -20 -20 -20 -20 -20 -19 -20 -20 -20 -20 -20 -21 -21 -21 -21 -21 -21 -21 -21 -21 -21 -22 -22 -22 -22 -22 -22 -22 -22 -23 -22 -22 -21 -21 -22 -21 -23 -22 -22 -21 -21 -21 -20
-20 -20 -20 -20 -21 -21 -21 -20 -21 -21 -21 -21 -22 -22 -22 -22 -23 -22 -23 -23 -22 -22 -23 -23 -23 -23 -23 -23 -23 -23 -23 -22 -23 -23 -23 -23 -23 -23 -23 -23 -23 -23 -23 -23 -22
-21 -21 -21 -21 -21 -22 -21 -22 -22 -22 -23 -23 -23 -23 -23 -23 -23 -23 -23 -23 -23 -23 -23 -24 -24 -24 -24 -24 -24 -24 -23 -24 -24 -23 -24 -25 -25 -25 -25 -24 -24 -24 -24 -24 -24
Height
5884 5885 5885 5886 5886 5887 5887 5887 5887 5887 5888 5888 5888 5888 5888 5888 5888 5887 5887 5887 5885 5884 5883 5882 5881 5880 5879 5878 5877 5876 5875 5873 5872 5870 5869 5868 5866 5864 5863 5861 5858 5857 5858 5857 5856
5879 5880 5881 5882 5883 5884 5884 5884 5884 5884 5884 5884 5884 5884 5884 5884 5883 5883 5883 5881 5881 5880 5879 5878 5876 5875 5874 5873 5872 5871 5870 5868 5866 5865 5864 5863 5862 5858 5859 5858 5853 5854 5852 5853 5852
5874 5875 5877 5877 5878 5879 5880 5880 5880 5880 5880 5880 5880 5880 5880 5880 5879 5878 5877 5876 5875 5874 5873 5872 5870 5870 5869 5867 5867 5867 5866 5863 5862 5859 5858 5857 5856 5853 5852 5854 5846 5849 5848 5847 5846
5869 5870 5871 5872 5872 5873 5874 5874 5874 5874 5874 5874 5874 5875 5875 5875 5874 5871 5870 5870 5868 5867 5866 5865 5864 5863 5863 5863 5862 5860 5861 5858 5857 5854 5851 5850 5850 5847 5846 5848 5842 5842 5842 5841 5839
5862 5863 5864 5865 5866 5866 5867 5867 5867 5867 5867 5867 5867 5868 5869 5870 5864 5863 5863 5863 5861 5860 5859 5858 5857 5854 5855 5856 5854 5854 5855 5853 5851 5849 5845 5841 5843 5837 5843 5839 5836 5836 5837 5834 5833
5854 5855 5856 5857 5858 5858 5859 5859 5859 5859 5859 5858 5858 5859 5861 5865 5860 5856 5856 5855 5854 5854 5853 5851 5850 5847 5849 5849 5847 5847 5846 5846 5845 5843 5837 5832 5836 5832 5839 5828 5830 5829 5829 5828 5828
5845 5846 5848 5849 5849 5850 5851 5851 5851 5851 5851 5851 5851 5852 5855 5857 5854 5851 5849 5848 5848 5847 5845 5844 5843 5841 5841 5842 5839 5837 5836 5837 5840 5836 5826 5823 5829 5832 5828 5822 5825 5823 5823 5822 5822
5836 5837 5838 5840 5841 5842 5843 5843 5844 5844 5843 5844 5843 5843 5847 5848 5845 5844 5843 5841 5840 5840 5838 5837 5834 5833 5834 5834 5830 5828 5825 5827 5834 5828 5821 5814 5818 5827 5818 5817 5818 5819 5818 5815 5814
5827 5827 5829 5830 5831 5832 5833 5834 5834 5834 5834 5834 5834 5832 5836 5838 5838 5836 5835 5835 5833 5831 5830 5829 5826 5823 5827 5827 5819 5821 5814 5814 5818 5824 5815 5805 5802 5818 5814 5810 5814 5813 5811 5809 5805
5818 5819 5820 5820 5822 5823 5823 5824 5824 5824 5825 5824 5823 5825 5824 5826 5827 5827 5826 5826 5824 5823 5821 5820 5815 5813 5819 5817 5809 5807 5805 5804 5803 5815 5806 5795 5791 5797 5807 5801 5804 5803 5802 5799 5797
5807 5808 5810 5811 5812 5813 5813 5814 5815 5815 5815 5815 5814 5813 5812 5812 5813 5817 5817 5816 5814 5813 5812 5809 5806 5808 5808 5804 5802 5799 5795 5792 5796 5795 5786 5790 5784 5784 5791 5794 5795 5793 5791 5790 5787
5795 5797 5798 5799 5801 5802 5803 5802 5803 5802 5805 5804 5804 5801 5800 5800 5799 5803 5806 5806 5804 5802 5800 5800 5794 5796 5794 5794 5791 5789 5786 5783 5781 5782 5778 5774 5772 5776 5773 5781 5783 5781 5780 5778 5777
5785 5786 5786 5787 5789 5790 5791 5792 5791 5791 5789 5794 5793 5790 5788 5790 5789 5791 5791 5791 5791 5790 5790 5787 5785 5784 5783 5780 5780 5780 5773 5773 5768 5768 5766 5763 5760 5759 5767 5766 5768 5768 5769 5767 5766
5772 5774 5775 5776 5777 5777 5778 5778 5778 5779 5777 5776 5776 5779 5779 5781 5781 5778 5776 5777 5776 5775 5774 5772 5775 5773 5769 5767 5769 5764 5766 5762 5760 5755 5752 5753 5747 5749 5751 5755 5751 5751 5753 5753 5756
5760 5762 5763 5763 5763 5764 5766 5766 5766 5767 5764 5761 5759 5763 5768 5768 5766 5766 5765 5765 5763 5763 5762 5762 5760 5759 5758 5758 5753 5752 5751 5751 5749 5746 5741 5739 5740 5736 5739 5741 5739 5736 5736 5736 5739
5748 5749 5751 5753 5753 5752 5753 5755 5757 5758 5749 5751 5750 5752 5753 5754 5755 5754 5752 5750 5750 5749 5748 5748 5747 5745 5743 5743 5741 5741 5739 5735 5733 5732 5731 5730 5729 5726 5726 5727 5726 5722 5721 5719 5720
5737 5737 5738 5740 5741 5741 5742 5742 5743 5739 5739 5741 5743 5741 5739 5737 5737 5738 5739 5740 5737 5734 5734 5733 5732 5733 5732 5730 5728 5727 5724 5723 5723 5720 5720 5718 5715 5714 5711 5714 5717 5714 5711 5709 5710
5724 5725 5725 5724 5727 5727 5729 5731 5727 5726 5732 5733 5730 5729 5724 5723 5725 5727 5728 5728 5727 5723 5717 5717 5721 5721 5721 5716 5714 5714 5713 5712 5703 5703 5705 5706 5704 5702 5698 5696 5695 5698 5698 5696 5692
5711 5711 5714 5711 5711 5713 5715 5717 5719 5717 5718 5719 5716 5714 5715 5713 5708 5707 5709 5715 5716 5713 5706 5703 5706 5705 5708 5704 5703 5701 5699 5698 5689 5690 5681 5690 5695 5690 5687 5682 5680 5679 5679 5679 5679
5696 5698 5699 5696 5697 5698 5699 5703 5704 5703 5699 5697 5697 5699 5702 5699 5695 5694 5695 5697 5697 5697 5690 5686 5684 5691 5692 5693 5694 5688 5686 5682 5678 5671 5664 5669 5670 5677 5680 5668 5664 5664 5662 5661 5659
5680 5682 5686 5680 5681 5682 5685 5689 5688 5687 5683 5682 5684 5681 5684 5682 5680 5677 5679 5680 5680 5678 5675 5670 5667 5676 5673 5679 5680 5671 5667 5667 5663 5658 5647 5646 5651 5671 5660 5655 5650 5648 5644 5644 5642
5664 5665 5670 5667 5667 5668 5671 5675 5673 5670 5670 5668 5670 5667 5667 5666 5665 5663 5666 5662 5663 5663 5661 5659 5646 5647 5655 5660 5656 5653 5650 5649 5640 5639 5637 5628 5626 5644 5642 5636 5633 5627 5625 5621 5619
5649 5650 5650 5652 5652 5654 5656 5658 5657 5657 5655 5652 5654 5654 5650 5652 5647 5651 5650 5651 5650 5648 5643 5641 5633 5628 5631 5641 5639 5632 5632 5629 5626 5618 5614 5611 5608 5615 5618 5614 5609 5607 5606 5602 5597
5635 5635 5638 5636 5639 5641 5640 5644 5643 5643 5641 5637 5640 5637 5635 5635 5634 5635 5633 5632 5633 5630 5628 5623 5619 5618 5614 5617 5617 5614 5615 5615 5611 5603 5598 5594 5598 5601 5600 5596 5593 5589 5586 5581 5576
5619 5620 5622 5621 5624 5624 5623 5629 5628 5625 5624 5621 5623 5620 5618 5618 5617 5617 5615 5613 5616 5615 5611 5604 5598 5602 5599 5598 5596 5595 5596 5599 5591 5586 5574 5580 5577 5582 5574 5575 5571 5566 5565 5563 5557
5602 5604 5605 5606 5608 5608 5605 5614 5610 5608 5607 5607 5605 5603 5601 5598 5597 5599 5597 5596 5597 5599 5593 5590 5581 5578 5575 5580 5572 5565 5574 5576 5572 5566 5557 5555 5548 5554 5548 5549 5546 5545 5542 5541 5537
5586 5586 5587 5589 5592 5592 5592 5592 5591 5591 5588 5589 5588 5586 5584 5583 5579 5579 5578 5579 5578 5577 5574 5570 5566 5560 5550 5558 5548 5538 5560 5549 5545 5549 5541 5527 5530 5524 5520 5522 5523 5519 5517 5516 5512
Wind_Speed
22 22 21 19 17 16 16 16 14 14 13 13 12 12 12 13 14 13 14 16 17 18 18 18 20 20 21 21 22 22 23 23 23 23 23 22 22 23 21 21 24 25 23 22 22
23 21 20 19 18 16 16 17 19 19 19 19 19 19 18 19 20 20 20 22 21 21 23 23 24 23 23 24 23 24 22 23 24 25 24 24 24 26 24 23 27 26 27 25 24
26 24 23 22 22 21 21 22 22 22 23 24 24 24 24 24 26 25 26 26 26 27 27 26 26 25 26 26 25 25 23 25 25 26 25 24 23 26 26 21 29 27 29 27 25
31 30 29 28 28 27 27 28 28 28 29 29 29 29 29 29 30 30 31 31 30 29 29 27 28 28 26 27 27 28 25 27 25 26 27 27 26 27 27 21 29 30 27 26 25
36 35 35 35 34 34 34 34 34 34 34 35 36 35 35 31 31 35 33 30 29 29 29 29 29 30 28 28 29 29 28 29 29 28 30 32 28 35 22 27 30 28 26 28 28
41 41 41 40 41 40 40 39 39 40 39 38 38 36 31 23 30 33 33 34 32 32 32 32 31 33 32 33 35 34 33 30 30 31 36 40 33 34 23 35 31 30 29 28 27
43 42 41 40 40 39 38 36 36 37 36 35 35 35 32 29 33 35 36 35 34 34 33 33 34 37 37 36 38 37 37 35 30 34 43 45 38 32 32 38 33 33 31 30 29
42 42 41 40 40 40 39 38 37 37 38 39 41 41 37 33 35 35 36 38 38 37 38 38 41 43 40 39 41 41 44 41 31 36 43 48 43 32 40 39 35 31 31 31 30
46 46 45 45 45 45 45 45 45 44 45 44 44 43 38 36 35 37 38 40 41 41 41 40 43 45 43 43 47 43 47 45 41 33 40 49 51 34 37 41 36 34 32 31 33
46 46 46 45 45 45 45 45 45 45 45 46 47 46 46 42 41 40 40 42 43 45 45 46 49 50 44 43 49 49 48 48 48 36 42 50 52 48 38 41 35 34 33 33 35
48 49 49 50 49 49 49 49 50 51 49 49 51 51 50 50 46 42 39 43 46 47 49 50 53 50 45 47 47 50 52 51 46 46 52 48 52 49 42 39 35 33 35 37 39
50 51 51 50 51 51 51 51 51 52 48 49 49 50 50 51 52 47 47 45 45 48 48 51 54 49 49 48 49 51 55 56 54 51 53 54 52 51 52 42 40 36 34 35 34
55 55 56 54 53 53 53 52 52 53 54 51 52 55 55 55 55 53 53 52 47 48 48 50 54 53 51 51 50 51 56 57 61 57 56 57 57 56 49 47 40 38 34 34 36
58 58 58 56 58 58 58 57 57 58 60 62 61 60 58 56 54 51 48 49 50 46 46 50 47 50 53 53 47 57 52 54 57 61 59 58 61 58 55 50 52 48 41 40 39
55 56 54 55 54 55 56 60 61 59 59 60 60 53 49 47 46 43 44 45 48 50 52 50 53 54 57 56 56 58 57 58 60 62 65 62 62 63 58 56 53 53 48 49 44
47 47 47 48 49 52 52 51 51 51 58 54 51 47 48 47 47 46 45 44 46 49 52 53 52 54 53 54 57 60 62 63 64 61 66 63 62 69 63 59 49 45 36 39 33
49 51 51 53 53 51 51 53 52 57 58 51 47 48 49 51 50 49 49 48 47 50 50 51 49 48 49 52 51 50 52 57 60 62 62 63 65 66 67 64 56 45 44 53 56
48 49 51 53 52 52 50 51 54 57 51 50 49 50 54 53 53 55 55 54 42 40 48 49 47 46 47 49 52 49 50 51 51 58 62 61 64 65 65 65 68 64 64 66 65
52 54 57 56 56 53 52 53 55 52 52 53 56 57 58 56 58 60 59 58 57 55 58 53 48 51 50 52 52 55 57 56 61 63 67 64 63 65 66 67 64 64 64 64 65
58 60 59 58 61 60 59 60 60 55 57 60 61 61 61 58 59 60 61 64 63 62 63 63 68 67 61 61 62 60 60 63 65 67 68 67 72 68 64 65 64 64 64 64 67
61 65 64 60 62 66 66 64 57 57 58 60 59 59 59 58 58 58 60 60 60 58 58 59 61 69 63 65 61 62 66 66 62 52 56 60 64 59 67 74 76 76 72 67 66
67 70 67 65 63 64 61 52 53 54 52 52 52 54 55 54 56 57 57 57 57 59 60 58 63 65 65 58 58 59 60 59 66 69 74 81 82 75 75 71 66 66 64 65 61
66 63 64 63 64 57 55 54 53 55 53 54 53 53 54 55 59 57 58 57 56 57 59 61 64 64 62 64 66 64 60 56 53 60 63 63 62 51 44 54 57 59 63 68 72
65 63 63 61 59 57 55 56 55 55 56 56 55 56 58 58 58 61 60 59 59 58 58 60 63 64 66 64 64 61 55 47 49 52 51 49 58 60 62 68 72 73 72 75 79
64 62 60 59 58 59 58 57 56 56 56 58 58 57 57 58 58 56 57 59 58 60 61 62 64 64 65 66 68 67 67 65 72 72 75 79 81 78 76 75 77 76 75 80 86
63 59 58 57 56 56 56 56 55 54 55 57 56 56 57 59 59 58 57 57 59 58 59 61 65 67 70 68 71 75 72 73 75 76 82 83 84 81 81 79 80 82 83 83 84
57 60 59 58 56 56 56 54 55 55 57 56 58 58 58 59 60 61 61 60 61 61 63 64 67 70 75 72 77 83 75 79 80 78 80 84 81 81 83 82 81 83 83 82 83
Wind_Direction
263 266 266 265 264 260 254 246 243 245 254 262 266 272 281 289 293 294 298 294 293 294 293 294 294 293 292 292 293 296 297 294 294 295 293 292 289 287 287 284 281 278 279 279 280
257 256 256 257 257 259 259 255 253 256 260 267 274 279 283 288 290 292 293 291 290 292 293 293 291 290 288 285 286 289 291 293 294 293 294 294 294 290 290 286 282 284 285 287 282
253 254 256 257 259 261 263 262 263 264 267 271 274 277 282 286 289 290 289 287 289 290 287 286 283 283 282 284 288 292 296 289 291 290 292 293 289 291 287 289 281 289 290 297 291
255 257 258 261 262 263 265 267 268 270 272 274 276 279 283 287 287 284 287 289 288 287 284 281 281 282 283 288 291 292 294 290 295 293 296 291 293 284 283 289 281 290 296 294 292
259 260 262 265 266 268 269 269 271 272 273 275 277 279 279 281 278 282 282 282 281 281 279 278 278 275 278 284 286 292 292 294 292 292 290 287 289 282 301 283 276 285 288 286 288
262 264 266 267 270 270 270 270 271 271 273 273 273 274 274 277 274 280 281 281 281 280 280 280 279 280 282 288 290 292 291 290 292 292 285 281 277 288 299 278 285 284 283 285 290
262 264 266 267 268 269 269 268 268 269 269 269 270 273 273 275 276 277 279 279 280 282 280 278 278 278 281 285 289 289 288 289 295 285 279 280 282 289 277 280 283 284 287 291 293
261 262 263 264 265 267 267 269 269 269 269 270 273 274 277 275 276 274 276 278 278 278 279 280 280 281 285 287 288 287 287 285 280 283 286 284 284 283 280 280 282 287 290 292 289
261 262 263 264 264 266 269 269 269 270 271 272 273 273 273 272 272 274 275 276 277 277 277 277 279 281 284 288 285 287 285 287 286 285 282 282 284 281 278 282 286 286 282 279 274
263 265 266 266 266 268 268 269 270 271 272 273 273 276 275 275 273 272 273 274 275 275 277 278 277 278 285 286 283 283 287 288 287 290 278 278 283 284 281 281 285 282 279 275 270
264 265 266 268 269 269 270 270 270 270 270 272 275 275 276 275 272 270 275 274 275 275 277 276 278 283 281 276 279 282 283 285 289 288 283 281 286 288 286 281 279 277 273 273 275
263 265 266 267 269 269 270 271 272 272 271 274 274 275 273 275 277 279 276 277 273 272 273 275 275 277 275 276 276 279 283 282 284 281 279 283 281 284 284 287 282 276 275 276 273
264 265 267 267 267 268 269 269 270 270 271 268 269 272 274 276 278 281 281 279 275 272 271 271 273 274 275 272 273 276 276 281 283 283 282 282 283 280 283 286 281 276 274 268 268
260 262 264 267 267 266 266 266 268 270 271 272 270 271 274 275 276 278 279 277 275 272 266 266 268 270 271 272 274 270 273 274 277 280 281 281 282 283 286 285 282 280 276 273 271
261 262 262 265 268 271 269 268 268 269 272 272 274 277 277 276 278 280 278 276 275 273 271 271 269 268 270 270 267 268 271 272 272 273 277 277 280 283 283 283 284 287 286 279 273
258 260 262 266 270 272 272 270 271 272 269 270 275 282 285 281 277 278 279 279 278 275 273 271 270 272 272 272 272 273 272 270 269 269 272 274 277 279 283 283 291 286 276 272 269
258 262 266 270 273 273 273 267 269 269 272 274 279 282 283 281 280 282 284 281 281 279 275 273 273 273 272 272 272 273 276 277 274 269 269 271 270 271 277 279 279 276 267 272 281
265 270 271 270 270 271 272 269 268 269 273 275 277 279 278 279 278 281 280 279 280 272 275 271 264 263 268 268 267 263 266 267 272 271 267 266 267 270 271 276 276 274 274 275 280
268 270 270 266 267 265 263 263 272 272 277 278 275 274 276 278 280 281 279 278 276 270 271 266 263 266 262 266 270 268 267 269 273 266 269 265 262 264 269 271 278 282 281 276 275
264 264 259 266 266 264 266 271 272 278 281 280 280 279 280 280 280 280 281 279 279 279 281 284 282 276 279 279 277 279 276 276 275 277 279 272 265 266 270 275 277 281 280 278 278
263 262 263 270 270 270 275 276 276 277 278 279 281 282 283 282 282 282 283 284 284 284 284 284 282 285 281 282 281 278 278 280 280 267 264 259 263 266 271 276 275 277 279 275 273
268 272 273 275 277 279 282 281 277 276 276 276 277 279 281 280 280 282 285 285 284 284 285 284 282 283 286 286 280 274 274 274 269 274 272 271 272 278 277 281 280 278 276 274 267
270 271 271 274 275 279 278 277 276 277 277 277 279 281 281 281 283 284 286 286 285 283 282 282 281 283 282 281 281 277 278 278 277 273 272 271 270 270 272 268 264 267 270 268 265
268 269 270 271 272 274 274 274 275 275 276 279 280 281 281 282 282 285 284 284 285 282 280 278 277 277 278 279 278 275 273 261 261 256 254 254 264 261 268 269 267 264 264 265 266
268 269 271 272 273 273 274 275 277 278 277 278 280 279 279 280 280 281 280 283 283 282 281 279 279 278 277 278 275 273 268 264 265 260 259 265 266 266 269 272 261 257 259 264 265
267 271 272 273 274 274 276 279 277 276 277 277 278 278 280 280 280 281 280 280 280 280 279 280 282 283 282 282 280 276 274 273 270 269 269 272 272 271 270 268 267 267 269 269 268
269 270 271 272 272 274 275 275 276 275 274 275 277 278 279 280 280 280 281 281 281 282 282 282 283 283 281 279 275 273 281 274 274 274 274 272 273 273 273 272 272 273 273 272 271